Theta_e
324 323 324 324 325 326 327 328 329 328 329 328 328 328 330 329 325 318 311 321 322 329 323 313 314 314 312 306 308 303 296 292 296 297 298 300 300 300 304 308 307 312 312 315 320
323 323 323 323 324 325 326 327 328 328 327 328 328 328 328 326 319 315 323 329 331 329 313 312 309 310 308 305 306 301 296 297 301 301 302 301 298 300 303 304 305 309 314 318 320
323 323 323 323 323 324 325 325 326 327 327 327 327 328 326 322 312 311 328 330 332 328 316 313 310 309 306 302 302 304 299 301 302 304 303 302 298 299 301 300 305 308 313 316 317
322 322 322 322 322 323 325 325 325 326 326 326 326 326 325 317 293 311 327 330 332 319 316 312 310 307 303 304 302 297 304 305 307 306 303 306 301 300 301 303 303 308 317 316 316
317 321 321 321 321 322 324 324 325 325 325 325 326 325 319 310 306 318 329 330 320 316 313 311 308 307 305 305 303 298 301 300 303 303 303 303 302 303 300 303 304 314 317 316 317
316 319 320 320 320 321 322 324 324 324 325 325 326 324 314 302 315 323 321 316 314 313 311 312 310 310 305 303 302 302 302 303 305 303 305 302 300 300 302 302 308 316 316 316 317
315 318 319 319 320 320 321 322 324 323 324 325 326 320 311 306 318 318 318 313 315 312 309 310 311 308 305 300 304 302 300 303 304 306 303 300 298 295 302 303 308 313 315 316 317
316 313 318 319 319 320 320 322 322 323 324 325 324 317 305 317 317 317 315 312 314 314 312 311 313 307 303 303 301 298 297 295 301 305 306 301 298 299 301 299 302 310 312 316 317
314 314 317 318 318 319 320 321 321 322 324 323 316 310 302 321 314 316 314 311 314 312 312 315 310 305 304 296 293 297 292 296 298 305 304 301 297 305 306 298 297 299 309 313 316
313 314 315 318 318 318 319 320 320 319 317 316 312 302 305 307 314 316 316 315 312 310 309 308 304 300 300 298 287 289 290 291 292 299 302 299 296 302 300 301 301 298 300 310 314
312 314 314 317 317 318 317 312 303 302 307 301 302 300 302 311 315 313 315 311 311 304 296 302 296 294 298 297 296 294 292 292 294 300 298 297 299 302 304 297 295 296 297 300 310
312 313 314 317 317 316 313 303 302 304 297 300 303 304 308 309 305 309 314 304 303 297 299 297 293 294 297 296 296 297 295 293 296 300 297 296 296 299 302 302 301 302 302 298 300
311 313 313 316 316 313 306 304 309 308 296 296 301 302 305 305 301 304 309 304 300 297 295 293 295 296 295 292 293 294 294 294 294 296 296 294 294 295 300 302 304 305 303 302 300
311 312 311 316 309 309 303 309 309 302 287 290 295 299 302 303 297 309 310 303 299 295 296 295 297 295 292 292 293 287 293 295 295 294 288 292 285 292 296 299 300 304 306 306 303
310 311 310 315 307 303 305 309 306 298 275 291 293 303 302 297 295 300 308 303 294 294 296 290 293 293 292 294 295 290 295 293 293 289 288 286 287 287 294 295 299 301 304 307 309
309 311 312 304 307 306 309 308 301 283 274 287 293 294 294 294 294 301 301 302 299 294 294 292 291 295 294 294 296 295 293 292 292 291 284 288 288 288 290 293 297 298 302 306 308
309 310 309 307 301 309 305 300 283 278 283 284 287 292 291 290 292 295 294 293 290 285 284 289 290 290 295 292 294 296 290 281 281 281 279 287 287 289 293 296 296 296 299 304 307
308 309 308 308 309 308 302 290 278 278 281 286 289 290 286 290 288 292 291 288 290 284 282 283 280 291 294 291 288 291 288 280 273 275 278 283 284 290 295 299 298 297 301 299 299
308 305 304 306 309 306 295 281 279 281 283 285 288 285 285 287 288 288 288 288 291 287 279 278 279 286 289 292 293 287 287 291 284 282 280 280 284 290 295 294 296 295 295 297 300
301 300 299 308 308 301 288 283 277 284 287 288 282 286 281 284 283 284 285 288 289 290 288 284 278 285 288 292 292 288 291 285 286 277 274 280 280 284 287 288 291 293 296 299 299
299 292 299 308 305 293 283 280 280 286 290 285 281 282 282 283 283 283 283 284 290 288 290 287 282 284 290 287 285 288 286 286 285 282 276 275 279 290 290 293 294 297 297 295 295
294 284 300 306 288 288 284 284 289 287 287 284 284 282 282 284 283 283 280 283 289 291 286 287 283 273 280 287 288 291 287 287 282 276 282 283 283 291 291 291 290 291 291 290 290
286 292 303 302 283 284 287 285 286 286 284 284 283 284 286 285 281 282 284 288 289 289 287 289 281 269 277 283 288 287 288 290 289 287 282 281 283 291 290 286 286 286 289 288 289
290 285 293 294 292 286 283 283 283 285 284 286 284 287 285 284 283 281 284 289 291 291 294 293 285 278 273 277 282 282 284 287 288 283 282 283 285 290 292 293 291 289 290 290 289
287 286 289 283 286 286 286 283 284 282 284 285 284 286 285 280 281 282 285 288 290 294 290 288 279 280 281 281 281 281 280 282 282 285 282 284 285 290 293 294 295 297 299 300 300
285 287 289 285 289 286 286 283 284 280 282 281 284 285 284 282 282 281 284 282 282 288 285 286 273 279 275 281 280 279 281 281 281 283 283 285 286 293 295 297 297 298 296 296 296
291 292 292 288 287 285 283 284 284 283 282 285 286 284 284 285 287 286 285 285 285 283 282 283 278 276 265 278 280 275 278 280 281 282 282 279 285 291 291 293 295 297 297 298 299
Wind_Speed
25 24 23 22 19 17 16 14 14 15 13 10 9 8 7 8 8 3 6 6 3 6 3 1 4 5 4 5 2 4 5 3 5 7 3 3 3 1 1 6 2 4 5 1 12
27 26 25 23 21 19 18 16 14 14 15 12 10 8 9 10 4 10 5 3 4 8 4 5 3 3 3 4 4 4 6 8 3 4 4 2 2 4 3 3 3 3 1 7 13
29 28 27 25 23 21 19 17 14 13 16 14 11 10 11 7 4 8 16 7 7 4 3 4 5 4 2 1 2 3 8 7 3 1 1 5 2 1 6 3 8 9 6 9 9
24 30 28 26 25 23 21 19 16 14 16 17 13 12 11 2 8 1 5 17 9 6 4 6 4 5 4 3 3 2 6 5 8 5 0 2 2 1 7 6 2 9 8 9 14
13 28 30 28 26 24 22 20 18 17 15 18 15 14 6 5 7 2 5 10 6 7 8 6 6 6 7 4 1 3 3 5 5 2 4 2 7 6 7 8 3 4 11 15 15
14 19 29 29 27 26 24 21 20 18 16 19 17 16 4 11 1 2 8 8 5 5 5 6 7 4 5 5 6 1 3 5 3 4 4 4 4 6 7 4 6 8 12 13 15
16 18 28 30 29 27 25 23 21 19 17 21 23 11 5 12 3 6 6 3 3 5 6 1 4 3 8 4 3 2 4 5 4 3 5 3 7 9 8 3 8 9 8 9 15
19 14 27 32 31 29 27 24 21 19 16 20 22 7 5 2 5 7 5 4 5 5 5 2 6 7 4 4 4 4 2 3 2 5 6 5 11 8 8 8 10 10 8 10 12
24 17 22 40 33 30 27 24 21 19 16 19 12 4 7 8 6 5 4 7 5 4 4 3 5 4 3 6 3 1 3 5 8 7 2 8 4 10 8 10 10 9 10 10 10
26 22 20 27 33 30 27 24 21 14 8 5 2 4 4 11 6 6 2 7 5 6 5 4 3 4 2 5 8 6 5 4 7 2 5 7 9 15 7 8 15 10 9 10 13
27 24 19 31 31 31 25 17 11 7 13 8 8 1 10 7 4 5 6 5 4 4 5 2 5 14 10 5 3 3 4 5 3 6 4 7 8 15 14 6 9 9 9 11 13
27 27 23 30 34 35 24 23 38 17 23 4 7 4 2 4 6 12 9 6 6 8 7 3 14 6 6 4 1 2 4 3 4 5 3 6 13 10 15 8 10 16 15 13 10
27 27 23 32 34 26 25 34 15 19 9 6 5 5 5 5 9 16 15 6 6 9 11 11 2 9 7 4 6 8 11 6 4 6 4 6 19 10 12 15 15 16 16 12 16
28 25 19 35 29 21 24 22 11 2 7 8 7 6 4 5 3 4 8 5 3 12 11 6 4 10 7 9 9 7 7 7 10 1 8 3 16 8 6 19 12 16 17 19 19
24 26 24 30 21 22 27 19 9 4 14 13 5 2 4 9 7 5 4 3 9 5 6 5 9 8 8 9 9 3 7 7 5 4 3 4 8 7 7 17 20 12 17 19 20
23 24 24 7 14 30 23 19 8 9 10 11 11 11 14 4 2 6 5 6 1 5 4 2 2 4 7 5 10 6 5 4 2 1 10 15 9 20 13 14 20 7 13 19 20
22 25 21 6 19 25 19 16 9 14 5 12 17 21 24 11 11 12 19 13 7 8 9 3 3 2 2 5 2 5 4 1 4 6 11 9 10 29 7 13 11 10 14 15 15
21 24 21 11 20 24 15 16 12 9 16 4 16 24 18 19 7 12 17 15 9 7 7 12 7 10 7 7 7 9 7 5 7 5 5 2 11 19 8 11 11 11 17 12 11
21 12 8 13 24 20 18 17 14 20 11 17 23 24 10 11 10 10 12 17 16 8 8 6 6 1 3 5 9 5 10 8 4 3 4 6 10 15 15 15 15 13 8 13 16
10 9 7 26 25 21 17 12 5 12 15 19 16 18 20 25 13 17 18 11 16 12 3 7 3 2 4 3 5 5 6 5 5 6 7 7 6 16 3 3 5 9 15 19 15
8 5 7 19 21 18 20 5 6 5 20 13 7 9 11 21 16 20 19 1 19 13 7 5 4 2 6 10 9 6 9 3 1 6 4 7 10 16 15 13 17 18 14 11 11
4 5 11 13 17 12 20 10 7 17 6 6 7 5 13 22 12 17 12 6 12 15 21 6 4 5 7 2 1 7 9 16 10 7 3 9 22 6 8 8 7 12 14 9 9
6 3 16 14 11 15 16 5 5 13 5 5 6 4 12 18 8 7 7 3 9 15 14 12 5 2 3 2 3 6 5 5 14 8 16 11 18 5 6 6 9 9 15 11 10
5 7 11 11 5 25 25 8 8 2 5 6 8 16 15 16 3 10 8 3 5 9 8 14 5 6 8 5 2 7 8 8 8 10 21 19 34 42 29 22 12 12 12 13 11
4 4 4 15 14 19 17 10 25 10 3 5 4 21 17 9 5 7 6 7 6 10 5 4 6 4 3 4 4 6 6 8 11 19 14 27 22 40 28 14 14 16 20 24 28
2 6 6 7 25 23 15 12 29 6 6 4 16 15 6 14 7 12 10 5 6 3 4 4 2 3 3 6 8 10 16 15 16 11 13 23 26 41 33 25 28 24 15 20 21
1 3 15 18 18 20 12 16 23 14 7 6 19 13 7 10 10 6 6 7 10 9 4 6 5 4 6 1 5 10 19 13 12 13 12 16 33 36 37 27 22 23 23 25 26
Wind_Direction
216 214 218 219 219 217 222 224 221 220 206 198 205 209 193 159 129 143 211 214 185 170 131 60 38 357 27 358 340 125 74 220 218 159 225 3 185 121 109 116 248 204 161 269 127
218 213 213 214 218 215 213 217 217 216 215 194 192 193 164 158 177 222 221 255 201 171 119 128 98 34 42 355 315 116 138 217 242 183 146 324 179 171 143 111 249 265 300 113 139
222 213 209 208 215 215 208 207 207 209 217 191 183 177 156 168 208 232 203 214 206 207 121 101 109 97 101 28 349 284 179 182 204 234 226 132 108 335 122 235 228 211 178 158 162
242 215 206 204 206 213 209 201 199 203 212 194 179 166 160 205 203 337 224 190 188 134 93 113 103 109 132 203 41 336 319 179 170 152 124 286 145 256 172 227 281 236 159 170 176
255 227 203 199 202 206 210 202 195 197 205 196 170 146 143 213 257 323 159 140 118 139 154 152 144 138 166 149 47 192 330 345 332 170 196 153 242 226 230 243 272 133 155 185 197
246 228 205 196 197 202 205 203 195 195 196 184 165 162 173 205 253 109 117 114 127 119 149 152 180 172 122 152 172 87 304 280 300 305 285 191 231 144 259 175 163 172 188 196 201
235 237 216 193 193 196 200 200 194 194 191 183 170 172 223 211 137 108 94 91 121 134 127 52 146 165 134 145 136 87 324 327 226 228 262 208 270 198 224 177 187 202 212 202 211
235 246 212 195 190 191 194 192 190 190 187 183 181 181 218 341 140 96 111 64 66 65 108 129 105 95 81 116 64 134 108 280 28 192 234 180 263 228 192 169 222 216 204 212 211
228 221 234 203 187 186 189 186 183 187 181 180 177 202 205 130 169 146 132 128 95 63 70 99 72 109 101 126 83 241 192 205 310 196 243 198 274 248 225 177 231 221 213 211 227
228 210 220 206 185 181 182 180 181 182 162 138 319 141 226 193 141 131 103 145 113 118 82 81 94 128 145 188 206 185 200 196 200 233 210 249 263 278 296 242 228 215 224 212 213
227 215 215 191 183 183 173 165 157 182 189 169 156 265 135 121 89 146 141 96 109 83 147 145 172 205 199 203 61 94 203 222 227 243 247 242 244 259 265 242 266 263 229 228 224
224 220 208 191 189 182 180 183 187 170 171 73 126 115 196 157 139 157 152 140 175 162 111 137 220 182 124 145 164 296 298 252 295 266 247 268 262 239 267 245 218 244 244 222 235
219 212 206 192 185 187 182 196 157 121 152 153 154 150 185 149 161 167 173 139 162 163 178 200 296 156 134 148 203 246 249 252 260 334 278 318 279 242 255 246 230 236 240 231 222
217 207 198 185 178 178 190 183 162 138 147 165 184 190 126 114 167 125 180 142 161 190 170 212 177 159 156 197 164 225 187 212 257 69 262 53 284 245 240 261 231 232 236 233 227
215 204 186 195 160 177 179 180 153 76 190 153 162 78 116 146 126 181 162 111 151 161 150 178 165 153 191 204 169 222 149 176 191 222 299 221 277 287 215 248 261 237 234 238 235
209 197 188 179 182 174 164 167 144 165 198 162 141 162 152 143 127 118 162 67 117 102 43 113 11 176 183 151 169 162 87 57 72 200 244 240 221 271 244 242 265 238 237 237 242
209 198 177 185 179 168 142 156 182 189 162 157 163 162 173 159 155 183 185 176 183 154 190 104 212 181 156 127 83 171 147 230 224 199 243 184 200 250 282 287 257 252 259 248 249
206 202 198 222 161 158 155 164 197 126 180 171 156 163 172 149 174 189 175 191 211 99 155 190 216 182 181 162 170 191 183 183 212 215 261 88 223 255 230 258 275 279 259 253 254
202 193 206 185 158 158 167 183 180 176 155 151 145 158 153 149 134 169 193 200 194 166 147 140 254 356 173 150 157 187 202 217 287 129 277 220 277 293 255 255 261 259 260 258 259
190 188 239 162 160 157 175 166 121 138 121 138 155 180 172 171 149 176 182 210 201 182 136 195 146 192 184 100 286 161 146 173 180 232 244 245 256 251 332 315 280 267 266 262 271
182 195 174 151 155 165 179 152 115 148 123 151 154 151 182 173 169 180 190 221 198 183 126 156 111 185 139 211 179 176 226 190 131 191 216 275 261 255 264 236 246 271 280 273 281
143 184 169 186 158 168 168 129 111 144 86 109 100 91 169 167 163 180 193 204 195 160 195 158 132 163 205 6 204 208 212 212 217 246 254 274 273 220 220 238 229 260 270 282 280
139 164 166 187 162 160 149 74 112 150 127 138 117 130 145 161 164 157 149 190 161 171 172 165 212 79 353 310 286 220 213 228 237 269 260 233 257 76 268 307 305 275 281 284 277
150 163 163 173 161 149 144 153 124 70 84 95 108 126 128 158 24 176 138 162 153 154 119 154 181 190 185 166 146 186 205 217 219 230 248 245 264 279 268 275 277 282 269 286 293
211 161 136 159 161 146 145 144 149 153 81 143 86 155 150 140 118 139 134 115 57 135 85 120 185 163 150 164 161 194 200 205 220 250 250 262 268 275 281 285 275 274 292 297 297
264 144 100 114 155 150 139 160 161 114 135 167 147 151 124 156 166 159 134 145 170 132 124 149 173 115 264 229 231 241 242 226 230 242 258 272 276 262 291 286 279 278 284 282 286
263 242 136 145 156 156 174 156 159 131 20 127 135 115 113 154 140 114 92 121 141 133 118 147 135 133 264 300 85 289 230 220 225 220 225 250 261 274 272 271 285 285 275 274 278